Regional Weather Roundup
Issued by NWS

Home | Current Version | Previous Version | Graphics & Text | Print | Product List | Glossary On
Versions: 1 2 3 4 5 6 7 8 9 10 11 12 13 14 15 16 17 18 19 20 21 22 23 24 25 26 27 28 29 30 31 32 33 34 35 36 37 38 39 40 41 42 43 44 45 46 47 48 49 50
000
ASUS43 KOAX 171802
RWRNE

WEATHER ROUNDUP FOR NEBRASKA
NATIONAL WEATHER SERVICE OMAHA NE
100 PM CDT WED SEP 17 2014

NOTES: SATELLITE DATA IS BEING USED TO AUGMENT CLOUD COVER ABOVE
       12000 FEET.
       "FAIR" INDICATES FEW OR NO CLOUDS BELOW 12,000 FEET WITH NO
       SIGNIFICANT WEATHER AND/OR OBSTRUCTIONS TO VISIBILITY.

  * THESE STATIONS DO NOT REPORT WEATHER SUCH AS RAIN...SNOW OR FOG.

NEZ001>004-019>022-054>056-171900-
NEBRASKA PANHANDLE

CITY           SKY/WX    TMP DP  RH WIND       PRES   REMARKS
SCOTTSBLUFF    SUNNY     83  45  26 VRB3      29.99F
6HR MIN TEMP:  48; 6HR MAX TEMP:  83;

ALLIANCE       SUNNY     81  47  30 CALM      29.98F
6HR MIN TEMP:  45; 6HR MAX TEMP:  81;

CHADRON        SUNNY     78  51  38 SE5       29.96F
6HR MIN TEMP:  46; 6HR MAX TEMP:  78;

SIDNEY         SUNNY     84  43  23 N8        30.02S
6HR MIN TEMP:  50; 6HR MAX TEMP:  84;

$$

NEZ057>060-069>072-079>082-171900-
SOUTHWEST NEBRASKA

CITY           SKY/WX    TMP DP  RH WIND       PRES   REMARKS
NORTH PLATTE   SUNNY     79  60  52 SE9       29.94F
6HR MIN TEMP:  48; 6HR MAX TEMP:  79;

IMPERIAL       SUNNY     82  50  32 SE9       29.96F
6HR MIN TEMP:  48; 6HR MAX TEMP:  82;

MCCOOK         SUNNY     73  60  63 VRB5      29.95F
6HR MIN TEMP:  47; 6HR MAX TEMP:  74;

OGALLALA       SUNNY     82  58  44 SE3       29.95F
$$

NEZ005>010-023>029-035>040-094-171900-
NORTH CENTRAL NEBRASKA

CITY           SKY/WX    TMP DP  RH WIND       PRES   REMARKS
VALENTINE      SUNNY     80  54  40 E9        29.94S
6HR MIN TEMP:  46; 6HR MAX TEMP:  81;

BROKEN BOW     MOSUNNY   84  58  40 E9        29.93S
6HR MIN TEMP:  44; 6HR MAX TEMP:  84;

O`NEILL        SUNNY     77  63  61 E6        29.93S
ORD            SUNNY     78  63  59 E5        29.91S
6HR MIN TEMP:  44; 6HR MAX TEMP:  78;

THEDFORD       SUNNY     82  54  37 E6        29.95S
$$

NEZ041-046>049-061>064-073>077-083>087-171900-
SOUTH CENTRAL NEBRASKA

CITY           SKY/WX    TMP DP  RH WIND       PRES   REMARKS
GRAND ISLAND   FAIR      77  61  57 E10       29.93F
6HR MIN TEMP:  49; 6HR MAX TEMP:  77;

HASTINGS       FAIR      76  60  57 E10       29.93S
6HR MIN TEMP:  49; 6HR MAX TEMP:  76;

HEBRON         FAIR      74  64  71 E8        29.93S
HOLDREGE       FAIR      76  60  57 E10       29.93F
KEARNEY *      FAIR      75  63  64 E12       29.94S
$$

NEZ011>018-030>034-042>045-171900-
NORTHEAST NEBRASKA

CITY           SKY/WX    TMP DP  RH WIND       PRES   REMARKS
NORFOLK        FAIR      76  61  59 VRB3      29.93S
6HR MIN TEMP:  47; 6HR MAX TEMP:  76;

ALBION         FAIR      76  62  60 SE6       29.92F
COLUMBUS *     FAIR      75  63  64 SE7       29.93F
TEKAMAH        FAIR      77  58  51 E6        29.92F
6HR MIN TEMP:  51; 6HR MAX TEMP:  77;

WAYNE          FAIR      76  62  59 CALM      29.93S
$$

NEZ050>053-065>068-078-088>093-171900-
SOUTHEAST NEBRASKA

CITY           SKY/WX    TMP DP  RH WIND       PRES   REMARKS
LINCOLN        FAIR      75  63  66 MISG      29.93F
6HR MIN TEMP:  53; 6HR MAX TEMP:  75;

OMAHA EPPLEY   FAIR      75  59  57 E5        29.93F
6HR MIN TEMP:  57; 6HR MAX TEMP:  75;

BEATRICE       FAIR      74  65  73 E7        29.92F
FALLS CITY     PTSUNNY   75  65  70 MISG      29.93S
6HR MIN TEMP:  61; 6HR MAX TEMP:  75; 6HR PCP: TRACE;

NEBRASKA CITY  FAIR      71  59  66 SE8       29.94F
PLATTSMOUTH    FAIR      74  61  63 S7        29.94S
$$

NEZ044-045-051>053-067-171900-
OMAHA AREA

CITY           SKY/WX    TMP DP  RH WIND       PRES   REMARKS
OMAHA EPPLEY   FAIR      75  59  57 E5        29.93F
6HR MIN TEMP:  57; 6HR MAX TEMP:  75;

OFFUTT AFB     FAIR      76  66  72 SE5       29.93S
PLATTSMOUTH    FAIR      74  61  63 S7        29.94S
WAHOO          FAIR      76  61  59 E6        29.93F
$$



USA.gov is the U.S. government's official web portal to all federal, state and local government web resources and services.